Time,TemperatureF,DewpointF,PressureIn,WindDirection,WindDirectionDegrees,WindSpeedMPH,WindSpeedGustMPH,Humidity,HourlyPrecipIn,Conditions,Clouds,dailyrainin,SolarRadiationWatts/m^2,SoftwareType,DateUTC
2013-04-06 00:02:00,47.0,47.0,-100.00,West,276,16.0,22.0,100,0.00,,,0.00,0.000000,,2013-04-06 07:02:00,
2013-04-06 00:12:00,47.0,47.0,-100.00,West,276,16.0,22.0,100,0.00,,,0.00,0.000000,,2013-04-06 07:12:00,
2013-04-06 00:22:00,47.0,47.0,-100.00,West,276,16.0,22.0,100,0.00,,,0.00,0.000000,,2013-04-06 07:22:00,
2013-04-06 00:53:00,48.0,48.0,-100.00,West,274,16.0,24.0,100,0.00,,,0.00,0.000000,,2013-04-06 07:53:00,
2013-04-06 01:02:00,48.0,48.0,-100.00,West,274,16.0,24.0,100,0.00,,,0.00,0.000000,,2013-04-06 08:02:00,
2013-04-06 01:12:00,48.0,48.0,-100.00,West,274,16.0,24.0,100,0.00,,,0.00,0.000000,,2013-04-06 08:12:00,
2013-04-06 01:22:00,48.0,48.0,-100.00,West,274,16.0,24.0,100,0.00,,,0.00,0.000000,,2013-04-06 08:22:00,
2013-04-06 01:52:00,48.0,48.0,-100.00,West,278,15.0,20.0,100,0.00,,,0.00,0.000000,,2013-04-06 08:52:00,
2013-04-06 02:02:00,48.0,48.0,-100.00,West,278,15.0,20.0,100,0.00,,,0.00,0.000000,,2013-04-06 09:02:00,
2013-04-06 02:12:00,48.0,48.0,-100.00,West,278,15.0,20.0,100,0.00,,,0.00,0.000000,,2013-04-06 09:12:00,
2013-04-06 02:22:00,48.0,48.0,-100.00,West,278,15.0,20.0,100,0.00,,,0.00,0.000000,,2013-04-06 09:22:00,
2013-04-06 02:53:00,48.0,48.0,-100.00,West,275,12.0,19.0,100,0.00,,,0.00,0.000000,,2013-04-06 09:53:00,
2013-04-06 03:03:00,48.0,48.0,-100.00,West,275,12.0,19.0,100,0.00,,,0.00,0.000000,,2013-04-06 10:03:00,
2013-04-06 03:12:00,48.0,48.0,-100.00,West,275,12.0,19.0,100,0.00,,,0.00,0.000000,,2013-04-06 10:12:00,
2013-04-06 03:22:00,48.0,48.0,-100.00,West,275,12.0,19.0,100,0.00,,,0.00,0.000000,,2013-04-06 10:22:00,
2013-04-06 03:53:00,48.0,48.0,-100.00,West,275,13.0,21.0,100,0.00,,,0.00,0.000000,,2013-04-06 10:53:00,
2013-04-06 04:02:00,48.0,48.0,-100.00,West,275,13.0,21.0,100,0.00,,,0.00,0.000000,,2013-04-06 11:02:00,
2013-04-06 04:12:00,48.0,48.0,-100.00,West,275,13.0,21.0,100,0.00,,,0.00,0.000000,,2013-04-06 11:12:00,
2013-04-06 04:22:00,48.0,48.0,-100.00,West,275,13.0,21.0,100,0.00,,,0.00,0.000000,,2013-04-06 11:22:00,
2013-04-06 04:53:00,48.0,48.0,-100.00,West,271,10.0,15.0,100,0.00,,,0.00,0.000000,,2013-04-06 11:53:00,
2013-04-06 05:02:00,48.0,48.0,-100.00,West,271,10.0,15.0,100,0.00,,,0.00,0.000000,,2013-04-06 12:02:00,
2013-04-06 05:12:00,48.0,48.0,-100.00,West,271,10.0,15.0,100,0.00,,,0.00,0.000000,,2013-04-06 12:12:00,
2013-04-06 05:21:00,48.0,48.0,-100.00,West,271,10.0,15.0,100,0.00,,,0.00,0.000000,,2013-04-06 12:21:00,
2013-04-06 05:52:00,48.0,48.0,-100.00,WSW,257,9.0,15.0,100,0.00,,,0.00,0.000000,,2013-04-06 12:52:00,
2013-04-06 06:02:00,48.0,48.0,-100.00,WSW,257,9.0,15.0,100,0.00,,,0.00,0.000000,,2013-04-06 13:02:00,
2013-04-06 06:12:00,48.0,48.0,-100.00,WSW,257,9.0,15.0,100,0.00,,,0.00,0.000000,,2013-04-06 13:12:00,
2013-04-06 06:23:00,48.0,48.0,-100.00,WSW,257,9.0,15.0,100,0.00,,,0.00,0.000000,,2013-04-06 13:23:00,
2013-04-06 06:53:00,48.0,48.0,-100.00,West,268,9.0,15.0,100,0.00,,,0.00,0.000000,,2013-04-06 13:53:00,
2013-04-06 07:03:00,48.0,48.0,-100.00,West,268,9.0,15.0,100,0.00,,,0.00,0.000000,,2013-04-06 14:03:00,
2013-04-06 07:12:00,48.0,48.0,-100.00,West,268,9.0,15.0,100,0.00,,,0.00,0.000000,,2013-04-06 14:12:00,
2013-04-06 07:22:00,48.0,48.0,-100.00,West,268,9.0,15.0,100,0.00,,,0.00,0.000000,,2013-04-06 14:22:00,
2013-04-06 08:53:00,52.0,51.0,-100.00,West,272,10.0,14.0,96,-99.99,,,0.00,102.000000,,2013-04-06 15:53:00,
2013-04-06 09:04:00,52.0,51.0,-100.00,West,272,10.0,14.0,96,-99.99,,,0.00,102.000000,,2013-04-06 16:04:00,
2013-04-06 09:17:00,52.0,51.0,-100.00,West,272,10.0,14.0,96,-99.99,,,0.00,102.000000,,2013-04-06 16:17:00,
2013-04-06 09:22:00,52.0,51.0,-100.00,West,272,10.0,14.0,96,-99.99,,,0.00,102.000000,,2013-04-06 16:22:00,
2013-04-06 09:53:00,53.0,50.0,-100.00,West,281,8.0,14.0,89,0.00,,,0.00,126.000000,,2013-04-06 16:53:00,
2013-04-06 10:02:00,53.0,50.0,-100.00,West,281,8.0,14.0,89,0.00,,,0.00,126.000000,,2013-04-06 17:02:00,
2013-04-06 10:12:00,53.0,50.0,-100.00,West,281,8.0,14.0,89,0.00,,,0.00,126.000000,,2013-04-06 17:12:00,
2013-04-06 10:22:00,53.0,50.0,-100.00,West,281,8.0,14.0,89,0.00,,,0.00,126.000000,,2013-04-06 17:22:00,
2013-04-06 10:52:00,55.0,51.0,-100.00,West,274,10.0,15.0,87,0.00,,,0.00,290.000000,,2013-04-06 17:52:00,
2013-04-06 11:02:00,55.0,51.0,-100.00,West,274,10.0,15.0,87,0.00,,,0.00,290.000000,,2013-04-06 18:02:00,
2013-04-06 11:12:00,55.0,51.0,-100.00,West,274,10.0,15.0,87,0.00,,,0.00,290.000000,,2013-04-06 18:12:00,
2013-04-06 11:22:00,55.0,51.0,-100.00,West,274,10.0,15.0,87,0.00,,,0.00,290.000000,,2013-04-06 18:22:00,
2013-04-06 11:52:00,55.0,53.0,-100.00,West,275,11.0,17.0,92,0.00,,,0.00,283.000000,,2013-04-06 18:52:00,
2013-04-06 12:02:00,55.0,53.0,-100.00,West,275,11.0,17.0,92,0.00,,,0.00,283.000000,,2013-04-06 19:02:00,
2013-04-06 12:12:00,55.0,53.0,-100.00,West,275,11.0,17.0,92,0.00,,,0.00,283.000000,,2013-04-06 19:12:00,
2013-04-06 12:22:00,55.0,53.0,-100.00,West,275,11.0,17.0,92,0.00,,,0.00,283.000000,,2013-04-06 19:22:00,
2013-04-06 12:53:00,54.0,52.0,-100.00,West,274,11.0,19.0,94,0.00,,,0.00,259.000000,,2013-04-06 19:53:00,
2013-04-06 13:02:00,54.0,52.0,-100.00,West,274,11.0,19.0,94,0.00,,,0.00,259.000000,,2013-04-06 20:02:00,
2013-04-06 13:12:00,54.0,52.0,-100.00,West,274,11.0,19.0,94,0.00,,,0.00,259.000000,,2013-04-06 20:12:00,
2013-04-06 13:22:00,54.0,52.0,-100.00,West,274,11.0,19.0,94,0.00,,,0.00,259.000000,,2013-04-06 20:22:00,
2013-04-06 13:52:00,55.0,55.0,-100.00,West,275,13.0,17.0,100,0.00,,,0.00,255.000000,,2013-04-06 20:52:00,
2013-04-06 14:02:00,55.0,55.0,-100.00,West,275,13.0,17.0,100,0.00,,,0.00,255.000000,,2013-04-06 21:02:00,
2013-04-06 14:12:00,55.0,55.0,-100.00,West,275,13.0,17.0,100,0.00,,,0.00,255.000000,,2013-04-06 21:12:00,
2013-04-06 14:22:00,55.0,55.0,-100.00,West,275,13.0,17.0,100,0.00,,,0.00,255.000000,,2013-04-06 21:22:00,
2013-04-06 14:53:00,57.0,55.0,-100.00,West,274,14.0,19.0,93,0.00,,,0.00,422.000000,,2013-04-06 21:53:00,
2013-04-06 15:02:00,57.0,55.0,-100.00,West,274,14.0,19.0,93,0.00,,,0.00,422.000000,,2013-04-06 22:02:00,
2013-04-06 15:13:00,57.0,55.0,-100.00,West,274,14.0,19.0,93,0.00,,,0.00,422.000000,,2013-04-06 22:13:00,
2013-04-06 15:22:00,57.0,55.0,-100.00,West,274,14.0,19.0,93,0.00,,,0.00,422.000000,,2013-04-06 22:22:00,
2013-04-06 15:53:00,60.0,52.0,-100.00,West,276,14.0,22.0,75,0.00,,,0.00,677.000000,,2013-04-06 22:53:00,
2013-04-06 16:03:00,60.0,52.0,-100.00,West,276,14.0,22.0,75,0.00,,,0.00,677.000000,,2013-04-06 23:03:00,
2013-04-06 16:13:00,60.0,52.0,-100.00,West,276,14.0,22.0,75,0.00,,,0.00,677.000000,,2013-04-06 23:13:00,
2013-04-06 16:22:00,60.0,52.0,-100.00,West,276,14.0,22.0,75,0.00,,,0.00,677.000000,,2013-04-06 23:22:00,
2013-04-06 16:53:00,60.0,49.0,-100.00,West,276,15.0,22.0,68,0.00,,,0.00,545.000000,,2013-04-06 23:53:00,
2013-04-06 17:02:00,60.0,49.0,-100.00,West,276,15.0,22.0,68,0.00,,,0.00,545.000000,,2013-04-07 00:02:00,
2013-04-06 17:12:00,60.0,49.0,-100.00,West,276,15.0,22.0,68,0.00,,,0.00,545.000000,,2013-04-07 00:12:00,
2013-04-06 17:22:00,60.0,49.0,-100.00,West,276,15.0,22.0,68,0.00,,,0.00,545.000000,,2013-04-07 00:22:00,
2013-04-06 17:53:00,57.0,50.0,-100.00,West,276,14.0,24.0,76,0.00,,,0.00,351.000000,,2013-04-07 00:53:00,
2013-04-06 18:02:00,57.0,50.0,-100.00,West,276,14.0,24.0,76,0.00,,,0.00,351.000000,,2013-04-07 01:02:00,
2013-04-06 18:12:00,57.0,50.0,-100.00,West,276,14.0,24.0,76,0.00,,,0.00,351.000000,,2013-04-07 01:12:00,
2013-04-06 18:22:00,57.0,50.0,-100.00,West,276,14.0,24.0,76,0.00,,,0.00,351.000000,,2013-04-07 01:22:00,
2013-04-06 18:53:00,55.0,50.0,-100.00,West,272,13.0,22.0,84,0.00,,,0.00,191.000000,,2013-04-07 01:53:00,
2013-04-06 19:02:00,55.0,50.0,-100.00,West,272,13.0,22.0,84,0.00,,,0.00,191.000000,,2013-04-07 02:02:00,
2013-04-06 19:12:00,55.0,50.0,-100.00,West,272,13.0,22.0,84,0.00,,,0.00,191.000000,,2013-04-07 02:12:00,
2013-04-06 19:22:00,55.0,50.0,-100.00,West,272,13.0,22.0,84,0.00,,,0.00,191.000000,,2013-04-07 02:22:00,
2013-04-06 19:52:00,53.0,49.0,-100.00,West,268,11.0,24.0,87,0.00,,,0.00,50.000000,,2013-04-07 02:52:00,
2013-04-06 20:02:00,53.0,49.0,-100.00,West,268,11.0,24.0,87,0.00,,,0.00,50.000000,,2013-04-07 03:02:00,
2013-04-06 20:12:00,53.0,49.0,-100.00,West,268,11.0,24.0,87,0.00,,,0.00,50.000000,,2013-04-07 03:12:00,
2013-04-06 20:22:00,53.0,49.0,-100.00,West,268,11.0,24.0,87,0.00,,,0.00,50.000000,,2013-04-07 03:22:00,
2013-04-06 20:54:00,51.0,48.0,-100.00,West,266,11.0,18.0,90,0.00,,,0.00,1.000000,,2013-04-07 03:54:00,
2013-04-06 21:03:00,51.0,48.0,-100.00,West,266,11.0,18.0,90,0.00,,,0.00,1.000000,,2013-04-07 04:03:00,
2013-04-06 21:13:00,51.0,48.0,-100.00,West,266,11.0,18.0,90,0.00,,,0.00,1.000000,,2013-04-07 04:13:00,
2013-04-06 21:23:00,51.0,48.0,-100.00,West,266,11.0,18.0,90,0.00,,,0.00,1.000000,,2013-04-07 04:23:00,
2013-04-06 21:53:00,51.0,47.0,-100.00,West,262,12.0,17.0,85,0.00,,,0.00,0.000000,,2013-04-07 04:53:00,
2013-04-06 22:02:00,51.0,47.0,-100.00,West,262,12.0,17.0,85,0.00,,,0.00,0.000000,,2013-04-07 05:02:00,
2013-04-06 22:12:00,51.0,47.0,-100.00,West,262,12.0,17.0,85,0.00,,,0.00,0.000000,,2013-04-07 05:12:00,
2013-04-06 22:22:00,51.0,47.0,-100.00,West,262,12.0,17.0,85,0.00,,,0.00,0.000000,,2013-04-07 05:22:00,
2013-04-06 22:52:00,51.0,44.0,-100.00,West,271,10.0,17.0,76,0.00,,,0.00,0.000000,,2013-04-07 05:52:00,
2013-04-06 23:02:00,51.0,44.0,-100.00,West,271,10.0,17.0,76,0.00,,,0.00,0.000000,,2013-04-07 06:02:00,
2013-04-06 23:12:00,51.0,44.0,-100.00,West,271,10.0,17.0,76,0.00,,,0.00,0.000000,,2013-04-07 06:12:00,
2013-04-06 23:22:00,51.0,44.0,-100.00,West,271,10.0,17.0,76,0.00,,,0.00,0.000000,,2013-04-07 06:22:00,
2013-04-06 23:52:00,50.0,42.0,-100.00,West,268,11.0,15.0,75,0.00,,,0.00,0.000000,,2013-04-07 06:52:00,